Regional Weather Roundup
Issued by NWS

Home | Current Version | Previous Version | Graphics & Text | Print | Product List | Glossary Off
Versions: 1 2 3 4 5 6 7 8 9 10 11 12 13 14 15 16 17 18 19 20 21 22 23 24 25 26 27 28 29 30 31 32 33 34 35 36 37 38 39 40 41 42 43 44 45 46 47 48 49 50

000
ASUS43 KMKX 042100
RWRWI

WISCONSIN REGIONAL WEATHER ROUNDUP
NATIONAL WEATHER SERVICE MILWAUKEE/SULLIVAN WI
300 PM CST SUN DEC 04 2016

NOTE: "FAIR" INDICATES FEW OR NO CLOUDS BELOW 12,000 FEET WITH NO
SIGNIFICANT WEATHER AND/OR OBSTRUCTIONS TO VISIBILITY.

WIZ001-002-006>008-014>016-023>028-042200-
NORTHWEST WISCONSIN

CITY           SKY/WX    TMP DP  RH WIND       PRES   REMARKS
SUPERIOR ARPT  CLOUDY    33  31  93 S7        29.76F WCI  27
ASHLAND        LGT SNOW  32  30  92 S6        29.78F FOG     WCI  26
HAYWARD        CLOUDY    32  28  85 S9        29.76F WCI  24
SIREN          LGT SNOW  32  32  98 S6        29.76F WCI  27
CUMBERLAND     CLOUDY    32  30  93 S10       29.75F FOG     WCI  24
RICE LAKE      CLOUDY    32  31  98 SE8       29.79F FOG     WCI  25
CHETEK         CLOUDY    32  31  98 S10       29.78F FOG     WCI  24
LADYSMITH      LGT SNOW  32  31  94 S8        29.81F WCI  25
EAU CLAIRE     CLOUDY    32  31  96 S10       29.80F FOG     WCI  24
MENOMONIE      CLOUDY    34  33  98 S8        29.80F FOG     WCI  27
NEW RICHMOND   CLOUDY    33  33 100 SW8       29.77F FOG     WCI  26
OSCEOLA        CLOUDY    34  34 100 S7        29.79F FOG     WCI  28
$$

WIZ003>005-009-010-017-018-042200-
NORTH CENTRAL WISCONSIN

CITY           SKY/WX    TMP DP  RH WIND       PRES   REMARKS
MANITOWISH WTR LGT SNOW  29  29 100 S9        29.79F WCI  20
ARBOR VITAE    LGT SNOW  32  29  90 S12       29.81F WCI  23
WOODRUFF       LGT SNOW  32  29  90 S12       29.81F WCI  23
RHINELANDER    LGT SNOW  30  28  92 S7        29.82F VSB 1   WCI  23
EAGLE RIVER    LGT SNOW  29  28  96 S7        29.82F VSB 1   WCI  22
LAND O LAKES   LGT SNOW  29  28  93 SE7       29.83F WCI  22
PHILLIPS       MIX PCPN  30  28  95 S10       29.79F WCI  21
TOMAHAWK       LGT RAIN  29  27  92 S3        29.83F VSB 1
MEDFORD        MIX PCPN  29  28  94 S10       29.81F WCI  20
MERRILL        LGT SNOW  30  29  96 S6        29.85F WCI  24
$$

WIZ029-030-035-036-043>047-042200-
CENTRAL WISCONSIN

CITY           SKY/WX    TMP DP  RH WIND       PRES   REMARKS
WAUSAU         LGT SNOW  30  28  92 S12       29.83F VSB 3/4 WCI  20
MOSINEE        LGT SNOW  28  28 100 SE9       29.85F VSB 1   WCI  20
MARSHFIELD     LGT SNOW  30  28  92 S14       29.82F VSB 3/4 WCI  19
STEVENS POINT  MIX PCPN  28  28 100 S7        29.87F VSB 1   WCI  21
WAUPACA        LGT SNOW  33  31  92 CALM      29.90F VSB 3/4
WAUTOMA        LGT SNOW  31  30  96 S8        29.89F VSB 1   WCI  23
WISC RAPIDS    SNOW      31  30  96 S6        29.87F VSB 1/2 WCI  25
CAMP DOUGLAS   NOT AVBL
$$

WIZ011>013-019>022-031-037>040-048>050-042200-
NORTHEAST WISCONSIN

CITY           SKY/WX    TMP DP  RH WIND       PRES   REMARKS
ANTIGO         LGT SNOW  28  28  96 S9        29.85F WCI  20
SHAWANO        MIX PCPN  33  31  92 S3        29.92F
OCONTO         CLOUDY    31  30  95 CALM      29.93F VSB 3/4
STURGEON BAY   LGT SNOW  32  30  92 CALM      29.93F VSB 1
GREEN BAY      LGT SNOW  32  32 100 SE3       29.92F VSB 3/4
MANITOWOC      LGT SNOW  34  30  86 CALM      29.93F VSB 3/4
APPLETON       LGT SNOW  30  30 100 S5        29.89F VSB 1   WCI  25
CLINTONVILLE   LGT SNOW  32  30  93 S6        29.91F VSB 1   WCI  26
OSHKOSH        SNOW      31  29  92 S5        29.90F VSB 1/2 WCI  26
$$

WIZ032>034-041-042-053>061-042200-
SOUTHWEST WISCONSIN

CITY           SKY/WX    TMP DP  RH WIND       PRES   REMARKS
LA CROSSE      CLOUDY    34  32  92 S12       29.85F WCI  25
SPARTA         LGT SNOW  32  31  96 S3        29.86F
VIROQUA        CLOUDY    31  30  95 S8        29.83F WCI  24
BOSCOBEL       LGT SNOW  34  30  85 S3        29.88F FOG
PRAIRIE DU CHI LGT SNOW  33  30  90 SE5       29.88F WCI  28
PLATTEVILLE    CLOUDY    31  31 100 SE9       29.89F WCI  23
$$

WIZ056-057-062-063-064-067-068-042200-
SOUTH CENTRAL WISCONSIN

CITY           SKY/WX    TMP DP  RH WIND       PRES   REMARKS
REEDSBURG      MIX PCPN  31  31 100 SE5       29.88F WCI  26
BARABOO/DELLS  LGT SNOW  31  29  94 S8        29.88F WCI  23
LONE ROCK      NOT AVBL
MINERAL POINT  LGT SNOW  32  32 100 S12       29.87F VSB 1   WCI  23
MADISON        SNOW      31  30  96 S8        29.91F VSB 1/2 WCI  23
MIDDLETON      CLOUDY    32  32 100 S5        29.90F VSB 1   WCI  28
WATERTOWN      LGT SNOW  31  31 100 CALM      29.91F VSB 3/4
MONROE         LGT SNOW  30  30 100 S9        29.90F WCI  22
JANESVILLE     LGT SNOW  32  32 100 S6        29.91F WCI  26
$$

WIZ051-052-058>065-066-070>072-042200-
SOUTHEAST WISCONSIN

CITY           SKY/WX    TMP DP  RH WIND       PRES   REMARKS
MILWAUKEE      SNOW      34  32  92 S5        29.92F VSB 1/2 WCI  30
WAUKESHA       SNOW      30  28  93 SE5       29.91F VSB 1/2 WCI  25
MILWAUKEE/TIMM SNOW      32  30  93 S5        29.93F VSB 1/2 WCI  27
RACINE         SNOW      33  32  96 S5        29.94F VSB 1/2 WCI  29
BURLINGTON     SNOW      31  31  99 CALM      29.92F VSB 1/2
KENOSHA        SNOW      33  33 100 S3        29.93F VSB 1/4
FOND DU LAC    LGT SNOW  32  29  88 S5        29.91F VSB 3/4 WCI  27
SHEBOYGAN      SNOW      32  32 100 CALM      29.91F VSB 1/2
WEST BEND      LGT SNOW  32  32 100 CALM      29.91F VSB 3/4
JUNEAU         LGT SNOW  30  29  96 S3        29.92F VSB 3/4
$$

LSZ147-162-042200-
LAKE SUPERIOR

STATION/POSITION TIME  TEMP    WIND        PRES    WAVE
                       AIR SEA DIR/SP/G            HT/PER
                 (UTC) (F)     (DEG/KT/KT) (MB)    (FT/S)
DEVILS ISLAND    2000   33     160/ 10/ 15 1010.5F
PORT WING        2040   33     150/  5/  8 1008.5F
SAXON HARBOR     2030   33     180/  5/ 10 1009.1F
$$

LMZ867-665-643>646-042200-
LAKE MICHIGAN

STATION/POSITION TIME  TEMP    WIND        PRES    WAVE
                       AIR SEA DIR/SP/G            HT/PER
                 (UTC) (F)     (DEG/KT/KT) (MB)    (FT/S)
CHAMBERS ISLAND  1940   32     150/  2/  4 1014.2F
NORTHPORT PIER   2040   31        CALM     1013.9F
KEWAUNEE LAKESHO 2030   32        CALM     1013.1F
SHEBOYGAN LAKESH 2000   34     160/ 12/ 13 1013.9F
PORT WASHINGTON  2040   36     180/ 16/ 21 1014.2F
MILWAUKEE LAKESH 2030   33     180/  6/  8   N/A
S MID LAKE BUOY  1950   36 48  140/ 14/ 17 1014.7F   2/ 4
KENOSHA   LAKESH 2000   34     160/ 16/ 19 1014.2
$$

TC  - TEMPERATURE IN CELSIUS
VSB - VISIBILITY IN STATUTE MILES
WCI - WIND CHILL INDEX
HX  - HEAT INDEX





USA.gov is the U.S. government's official web portal to all federal, state and local government web resources and services.